Location: Andershausen
(51.8462°N, 9.8595°E)
Time: 23:03:23
(UTC+00:00)

SJ-7 - Pass Details

Date: 18 November 2025
Orbit: 500 x 523 km, 97.7° (Epoch: 04 December)

Event Time Altitude Azimuth Distance (km) Brightness Sun altitude
Rises 17:29:00 0° 162° (SSE) 2,586 7.7 -18.7°
Reaches altitude 10° 17:31:04 10° 161° (SSE) 1,706 6.7 -19.0°
Maximum altitude 17:34:44 82° 76° (ENE) 514 4.0 -19.5°
Drops below altitude 10° 17:38:27 10° 348° (NNW) 1,722 6.9 -20.1°
Sets 17:40:33 0° 347° (NNW) 2,614 7.9 -20.4°
